Location: Jodlow
(50.1500°N, 16.7500°E)
Time: 22:44:45
(UTC+02:00)

O/OREOS (USA 219) - Visible Passes

Search period start: 18 June 2024 00:00
Search period end: 28 June 2024 00:00
Orbit: 595 x 617 km, 72.0° (Epoch: 18 June)

Date Brightness Start Highest point End Pass type
(mag) Time Alt. Az. Time Alt. Az. Time Alt. Az.
18 Jun ? 02:26:18 10° SSE 02:29:34 22° ESE 02:32:56 10° NE visible
19 Jun ? 02:39:26 15° S 02:42:38 37° ESE 02:46:40 10° NE visible
20 Jun ? 02:52:31 17° SSW 02:55:48 65° ESE 03:00:08 10° NNE visible
21 Jun ? 01:28:42 11° SE 01:30:50 15° E 01:33:12 10° ENE visible
21 Jun ? 03:05:34 16° SW 03:09:03 74° WNW 03:13:26 10° NNE visible
22 Jun ? 01:41:43 17° SE 01:43:49 25° ESE 01:47:22 10° NE visible
22 Jun ? 03:18:35 12° SW 03:22:24 44° NW 03:26:37 10° NNE visible
23 Jun ? 01:54:41 23° SSE 01:56:53 42° ESE 02:01:00 10° NE visible
23 Jun ? 03:32:04 10° WSW 03:35:51 28° NW 03:39:39 10° N visible
24 Jun ? 02:07:37 26° SSW 02:10:02 73° ESE 02:14:25 10° NNE visible
24 Jun ? 03:46:14 10° W 03:49:23 19° NW 03:52:33 10° N visible
25 Jun ? 00:43:40 14° ESE 00:45:00 16° E 00:47:42 10° ENE visible
25 Jun ? 02:20:32 21° SW 02:23:17 66° WNW 02:27:40 10° NNE visible
26 Jun ? 00:56:32 22° SE 00:57:59 27° ESE 01:01:41 10° NE visible
26 Jun ? 02:33:23 15° WSW 02:36:39 40° NW 02:40:48 10° NNE visible
27 Jun ? 01:09:22 30° SSE 01:11:03 47° ESE 01:15:16 10° NE visible
27 Jun ? 02:46:25 10° WSW 02:50:05 26° NW 02:53:48 10° N visible
27 Jun ? 23:45:29 10° ESE 23:46:12 10° E 23:46:54 10° E visible
